Saint Petersburg, FL

1:45 PM EST on February 24, 2017 (GMT -0500)
Pinellas St. Petersburg Municipal Bldg. WeatherSTEM | | Change Station

Elev 0 ft 27.77 °N, 82.64 °W | Updated 29 seconds ago

Clear
Clear
75.6 °F
Feels Like 77 °F
N
3.0
Wind Variable Wind from East

Today
High -- | Low -- °F
--% Chance of Precip.
Yesterday
High -- | Low -- °F
Precip. -- in
Pressure 29.81 in
Visibility 10.0 miles
Clouds Clear
Heat Index 77 °F
Dew Point 64 °F
Humidity 68%
Rainfall 0.00 in
Snow Depth Not available.
6:59 AM 6:28 PM
Waning Crescent, 4% visible
METAR KSPG 241753Z 09003KT 10SM CLR 24/18 A2981 RMK AO2 SLP093 T02390178 10239 20189 58013
Pressure 29.81 in
Visibility 10.0 miles
Clouds Clear
Heat Index 77 °F
Dew Point 64 °F
Humidity 68%
Rainfall 0.00 in
Snow Depth Not available.
6:59 AM 6:28 PM
Waning Crescent, 4% visible
METAR KSPG 241753Z 09003KT 10SM CLR 24/18 A2981 RMK AO2 SLP093 T02390178 10239 20189 58013

Get Your Daily Forecast Email!

Thanks for signing up!

Be on the lookout for a verification email in your inbox.

You'll start receiving the daily forecast at 8 AM.

×

10-Day Weather Forecast

Almanac

Astronomy

Feb. 24, 2017 Rise Set
Actual Time
Civil Twilight
Nautical Twilight
Astronomical Twilight
Moon
Length of Visible Light
Length of Day
Tomorrow will be .
, % of the Moon is Illuminated

Today's Extremes

State Highs State Lows

Community

WunderPhotos

Upload Photos

1,962,540 photos uploaded!

WunderBlog® & News

Nearby

Air Quality

  Air Quality AQ Index Pollutant
Not available.

Snow Depth

Station Depth Elevation

Earthquake Activity

City Distance Mag. Time & Date
Minimum magnitude displayed is 2.5.

Coastal Water Temperatures

Place Temperature

Stations

Nearby Weather Stations

Station Location Temp. Windchill Dew Point Humidity Wind Precip. Elev Updated Type
                   

Watches & Warnings

There are currently no watches in effect.